[[{"header":{"parameterUnit":"m.s-1","parameterCategory":1,"la1":30.2991,"la2":30.254,"lo1":-89.0895,"lo2":-89.0444,"dy":0.0017,"dx":0.0017,"nx":28,"ny":28,"refTime":"2023-08-04T09:00:00:Z","depth":0,"parameterNumber":2,"parameterNumberName":"U-component_of_WINDS"},"data":[0,0,0,0,0,0,0,0,0,0,0,0,0,0,0,0,0,0,0,0,0,0,0,0,0,0,0,0,0,0,0,0,0,0,0,0,0,0,0,0,0,0,0,0,0,0,0,0,0,0,0,0,0,0,0,0,0,0,2.8994,2.8994,0,2.9041,2.9042,2.9042,2.9032,2.9031,2.903,2.9029,2.9079,2.9081,2.9083,0,0,0,0,0,0,0,0,0,0,0,0,0,2.8897,2.8899,2.8994,2.8994,2.8995,2.9041,2.9042,2.9042,2.9032,2.9031,2.903,2.9029,2.9078,2.9081,2.9083,0,0,0,0,0,0,0,0,0,0,0,0,0,2.8941,2.8899,2.8994,2.8995,2.8996,2.9041,2.9042,2.9043,2.9032,2.9031,2.903,2.9028,2.9077,2.9081,2.9084,2.913,0,0,2.9094,2.9095,0,0,0,0,0,0,0,0,2.8938,2.8945,2.8995,2.8995,2.8996,2.9029,2.9026,2.9072,2.9033,2.9019,2.9029,2.9028,2.9064,2.9068,2.908,2.9132,2.9135,2.9094,2.9096,2.9097,2.9098,0,0,0,0,0,0,0,2.8935,2.8942,2.9013,2.8995,2.8996,2.8995,2.8999,2.9034,2.9048,2.902,2.9019,2.9025,2.9064,2.9077,2.9081,2.9135,2.9094,2.9097,2.9099,2.91,2.9231,2.9233,0,0,0,0,0,0,2.8931,2.894,2.9011,2.9014,2.8963,2.8997,2.9003,2.902,2.9048,2.905,2.9026,2.9024,2.9072,2.9077,2.9082,2.914,2.9097,2.91,2.9102,2.923,2.9232,2.9233,0,0,0,0,0,0,2.8929,2.8938,2.9009,2.8977,2.8986,2.9,2.902,2.9022,2.9034,2.9052,2.9055,2.9036,2.9071,2.9078,2.9119,2.9142,2.9102,2.9105,2.9228,2.923,2.9232,2.9255,0,0,0,0,0,0,2.8927,2.8937,2.8954,2.8977,2.8988,2.9044,2.9021,2.9024,2.904,2.9038,2.9063,2.9066,2.907,2.9114,2.9122,2.9145,2.9107,2.9226,2.9229,2.9232,2.9252,2.9258,2.9263,0,0,0,0,0,2.8923,2.8959,2.8955,2.8964,2.9009,2.9045,2.9051,2.9056,2.9042,2.906,2.9071,2.9065,2.9138,2.9118,2.9127,2.9152,2.9224,2.9228,2.9231,2.925,2.9257,2.9263,0,0,0,0,0,0,2.8938,2.8961,2.8958,2.9002,2.9022,2.9043,2.9066,2.9062,2.9087,2.9084,2.9089,2.9095,2.9137,2.9148,2.9126,2.92,2.9179,2.9185,2.9191,2.9197,2.9202,2.9199,2.911,0,0,0,0,0,2.8946,2.8973,2.8992,2.9029,2.9039,2.9051,2.9067,2.9069,2.909,2.9098,2.9113,2.9134,2.9162,2.918,2.9206,2.9254,2.926,2.9276,2.9281,2.9285,2.929,2.9318,2.9325,2.9245,2.9245,2.9245,0,0,2.8963,2.898,2.8996,2.9032,2.9048,2.9077,2.9058,2.9089,2.911,2.9103,2.9143,2.9154,2.9178,2.9223,2.9244,2.9234,2.9314,2.9289,2.9293,2.9295,2.9322,2.933,2.9337,2.9247,2.9247,2.9246,0,0,2.901,2.9024,2.9057,2.9074,2.9098,2.9106,2.9114,2.9137,2.9144,2.9184,2.918,2.9206,2.9253,2.9271,2.9287,2.9342,2.9338,2.9351,2.9378,2.9405,2.9411,2.9417,2.9438,2.9446,2.9355,2.9355,2.9355,0,2.9028,2.9071,2.9075,2.9107,2.9123,2.9118,2.9153,2.9168,2.92,2.9212,2.9201,2.9262,2.9277,2.9327,2.9341,2.9353,2.9364,2.9348,2.941,2.9416,2.9421,2.9442,2.9449,2.9357,2.9357,2.9357,2.9356,0,2.9093,2.9123,2.9147,2.9178,2.9198,2.923,2.9241,2.926,2.9261,2.927,2.9312,2.9331,2.9362,2.9374,2.9375,2.9425,2.9419,2.9409,2.9388,2.943,2.945,2.9457,2.9359,2.9359,2.9358,2.9358,0,0,2.9149,2.9184,2.9192,2.9207,2.9234,2.9258,2.9291,2.9322,2.9339,2.9361,2.9391,2.9432,2.9424,2.9441,2.9444,2.9468,2.9513,2.9455,2.9456,2.9466,2.9571,2.9579,2.9588,2.951,2.9511,2.9512,2.957,0,2.9199,2.9258,2.9263,2.9316,2.9345,2.9341,2.9371,2.9391,2.9401,2.9428,2.9439,2.9469,2.9455,2.9466,2.9489,2.9502,2.9534,2.9498,2.9538,2.9539,2.9533,2.9598,2.9606,2.9659,2.9577,2.9578,2.9579,0,2.9265,2.929,2.9346,2.9371,2.9383,2.9409,2.9439,2.9464,2.9487,2.9493,2.9514,2.9514,2.955,2.9528,2.9579,2.9554,2.9571,2.958,2.9582,2.9587,2.9562,2.9605,2.9676,2.9684,2.9591,2.959,2.9589,0,2.9302,2.935,2.939,2.9403,2.9432,2.9451,2.9464,2.9487,2.9506,2.9531,2.9544,2.9574,2.959,2.9614,2.9623,2.9606,2.9674,2.9652,2.9681,2.9681,2.9695,2.9694,2.9771,2.9705,2.9705,2.9704,2.9704,0,2.9358,2.9393,2.9407,2.9432,2.9471,2.9478,2.9517,2.9529,2.955,2.9578,2.9576,2.9603,2.9613,2.9641,2.9648,2.969,2.9697,2.9704,2.9706,2.9705,2.9704,2.9716,2.9713,2.9706,2.9706,2.9706,2.9705,0,2.9406,2.9417,2.9461,2.9486,2.9493,2.9521,2.9543,2.9567,2.9578,2.9613,2.9622,2.9638,2.9672,2.9683,2.9724,2.9729,2.9778,2.9776,2.977,2.977,2.9799,2.9796,2.9886,2.9899,2.9824,2.9824,2.9825,0,2.9442,2.9468,2.9496,2.9515,2.9529,2.9559,2.9578,2.9586,2.9607,2.9637,2.9658,2.9692,2.9719,2.9773,2.9789,2.9821,2.982,2.9849,2.9825,2.9824,2.9822,2.9821,2.9824,2.9854,2.9855,2.9856,2.9856,0,2.9504,2.9508,2.9536,2.9566,2.9589,2.9613,2.9637,2.9652,2.9664,2.9687,2.9722,2.9743,2.9785,2.9818,2.9851,2.9866,2.9864,2.9864,2.9872,2.9872,2.9868,2.9872,2.9783,2.9862,2.9861,2.9861,2.986,2.986,2.9547,2.9572,2.9596,2.9627,2.9646,2.9668,2.9693,2.9707,2.9735,2.977,2.9773,2.9811,2.9836,2.9879,2.9896,2.9926,2.9918,2.993,2.9933,2.9936,2.9939,2.9862,2.9932,2.9932,2.9932,2.9932,2.9931,0,2.9611,2.9626,2.9655,2.9688,2.9713,2.9709,2.9735,2.9757,2.979,2.9813,2.984,2.9881,2.9914,2.9933,2.9966,2.9987,2.9987,2.9996,2.9995,2.9999,2.9944,2.9934,2.9995,2.9995,2.9995,2.9995,2.9995,2.9995,2.9646,2.9688,2.9696,2.9747,2.9762,2.9799,2.9815,2.9836,2.9855,2.99,2.9927,2.994,2.9962,2.9997,3.0028,3.0033,3.0046,3.0056,3.006,3.0009,3.0002,2.9996,2.9986,3.0058,3.0058,3.0112,3.0113,3.0113]},{"header":{"parameterUnit":"m.s-1","parameterCategory":1,"la1":30.2991,"la2":30.254,"lo1":-89.0895,"lo2":-89.0444,"dy":0.0017,"dx":0.0017,"nx":28,"ny":28,"refTime":"2023-08-04T09:00:00:Z","depth":0,"parameterNumber":3,"parameterNumberName":"V-component_of_WINDS"},"data":[0,0,0,0,0,0,0,0,0,0,0,0,0,0,0,0,0,0,0,0,0,0,0,0,0,0,0,0,0,0,0,0,0,0,0,0,0,0,0,0,0,0,0,0,0,0,0,0,0,0,0,0,0,0,0,0,0,0,-1.1734,-1.1734,0,-1.1767,-1.1767,-1.1767,-1.1783,-1.1783,-1.1783,-1.1783,-1.1816,-1.1817,-1.1818,0,0,0,0,0,0,0,0,0,0,0,0,0,-1.1684,-1.1685,-1.1733,-1.1734,-1.1734,-1.1767,-1.1767,-1.1768,-1.1783,-1.1783,-1.1783,-1.1783,-1.1816,-1.1817,-1.1818,0,0,0,0,0,0,0,0,0,0,0,0,0,-1.171,-1.1685,-1.1733,-1.1746,-1.1747,-1.1767,-1.1767,-1.1768,-1.1783,-1.1783,-1.1783,-1.1783,-1.1816,-1.1817,-1.1819,-1.1828,0,0,-1.1823,-1.1823,0,0,0,0,0,0,0,0,-1.1709,-1.1712,-1.1744,-1.1745,-1.1747,-1.1771,-1.1762,-1.1788,-1.1783,-1.1769,-1.1783,-1.1783,-1.1801,-1.1804,-1.181,-1.183,-1.1831,-1.1823,-1.1824,-1.1824,-1.1825,0,0,0,0,0,0,0,-1.1707,-1.1711,-1.1747,-1.1744,-1.1746,-1.175,-1.1754,-1.1767,-1.1785,-1.177,-1.1772,-1.1775,-1.1802,-1.1809,-1.1811,-1.1831,-1.1823,-1.1824,-1.1825,-1.1825,-1.1863,-1.1863,0,0,0,0,0,0,-1.1703,-1.1709,-1.1746,-1.1748,-1.1727,-1.1751,-1.1755,-1.1763,-1.1785,-1.1788,-1.1775,-1.1776,-1.1806,-1.1809,-1.1812,-1.1826,-1.1824,-1.1826,-1.1826,-1.1862,-1.1863,-1.1863,0,0,0,0,0,0,-1.1702,-1.1706,-1.1744,-1.1729,-1.1734,-1.1752,-1.1761,-1.1764,-1.177,-1.1789,-1.1792,-1.1779,-1.1806,-1.181,-1.1824,-1.1827,-1.1826,-1.1827,-1.1862,-1.1863,-1.1863,-1.1853,0,0,0,0,0,0,-1.1701,-1.1706,-1.1709,-1.1729,-1.1735,-1.1755,-1.1761,-1.1764,-1.1773,-1.1774,-1.1793,-1.1796,-1.1807,-1.1822,-1.1826,-1.1829,-1.1829,-1.1862,-1.1862,-1.1863,-1.1853,-1.1853,-1.1853,0,0,0,0,0,-1.1699,-1.1705,-1.1709,-1.1713,-1.1739,-1.1755,-1.1759,-1.1771,-1.1773,-1.1777,-1.1789,-1.1795,-1.1827,-1.1824,-1.1828,-1.1832,-1.1862,-1.1862,-1.1863,-1.1853,-1.1853,-1.1853,0,0,0,0,0,0,-1.1684,-1.1707,-1.1713,-1.1725,-1.1738,-1.1758,-1.1763,-1.177,-1.1783,-1.1784,-1.1798,-1.1803,-1.1816,-1.1825,-1.1821,-1.1843,-1.1845,-1.1846,-1.1836,-1.1836,-1.1836,-1.1834,-1.183,0,0,0,0,0,-1.1682,-1.1693,-1.1713,-1.1722,-1.1729,-1.1745,-1.1752,-1.1761,-1.1775,-1.1781,-1.1794,-1.1808,-1.1821,-1.1829,-1.1842,-1.1855,-1.186,-1.186,-1.1859,-1.1859,-1.186,-1.1869,-1.187,-1.1864,-1.1864,-1.1864,0,0,-1.1679,-1.1693,-1.1699,-1.172,-1.1731,-1.1743,-1.1749,-1.1761,-1.177,-1.1783,-1.1797,-1.1807,-1.1824,-1.1838,-1.1845,-1.1846,-1.1863,-1.186,-1.1859,-1.186,-1.187,-1.187,-1.1871,-1.1864,-1.1864,-1.1864,0,0,-1.1678,-1.1689,-1.1699,-1.1711,-1.1728,-1.1739,-1.1741,-1.1761,-1.1768,-1.1783,-1.1793,-1.1805,-1.1826,-1.1838,-1.1847,-1.1854,-1.1861,-1.1857,-1.1856,-1.1865,-1.1865,-1.1866,-1.1869,-1.187,-1.1858,-1.1858,-1.1858,0,-1.1671,-1.1689,-1.1703,-1.1715,-1.1724,-1.1737,-1.1747,-1.1758,-1.1778,-1.1785,-1.1786,-1.1815,-1.1827,-1.1845,-1.1847,-1.1853,-1.1857,-1.1855,-1.1864,-1.1865,-1.1866,-1.1869,-1.187,-1.1858,-1.1858,-1.1858,-1.1858,0,-1.1681,-1.1693,-1.1699,-1.1719,-1.1729,-1.174,-1.1756,-1.1765,-1.1773,-1.1784,-1.1801,-1.1816,-1.1833,-1.1837,-1.1845,-1.1857,-1.1857,-1.1861,-1.1864,-1.1865,-1.1869,-1.187,-1.1857,-1.1857,-1.1857,-1.1858,0,0,-1.167,-1.17,-1.1702,-1.1712,-1.1733,-1.1743,-1.1755,-1.1773,-1.1781,-1.1795,-1.1806,-1.1825,-1.183,-1.184,-1.1849,-1.1857,-1.1863,-1.186,-1.1861,-1.1861,-1.1878,-1.1876,-1.1877,-1.1868,-1.1868,-1.1868,-1.1877,0,-1.1673,-1.1696,-1.1709,-1.1726,-1.1739,-1.1752,-1.1763,-1.1778,-1.1789,-1.1802,-1.1814,-1.1828,-1.1832,-1.1839,-1.1847,-1.186,-1.1867,-1.186,-1.1879,-1.188,-1.1875,-1.1879,-1.1875,-1.1883,-1.1879,-1.1879,-1.1879,0,-1.1679,-1.1694,-1.1713,-1.1735,-1.174,-1.175,-1.1768,-1.1779,-1.1797,-1.1805,-1.1817,-1.1827,-1.1841,-1.1843,-1.1863,-1.1859,-1.1868,-1.1876,-1.1876,-1.1879,-1.188,-1.1882,-1.1886,-1.1887,-1.1881,-1.1881,-1.1881,0,-1.1671,-1.1696,-1.1711,-1.1719,-1.1744,-1.1751,-1.1762,-1.1779,-1.1789,-1.1805,-1.1812,-1.1829,-1.1839,-1.1852,-1.1867,-1.1866,-1.1887,-1.1889,-1.1894,-1.1894,-1.1898,-1.1898,-1.1904,-1.1903,-1.1903,-1.1903,-1.1903,0,-1.1673,-1.1684,-1.1708,-1.1717,-1.173,-1.1747,-1.1759,-1.1771,-1.1787,-1.1799,-1.1812,-1.1823,-1.1842,-1.1856,-1.1867,-1.1884,-1.1888,-1.1895,-1.1898,-1.1894,-1.1893,-1.19,-1.19,-1.1903,-1.1903,-1.1903,-1.1903,0,-1.1666,-1.1682,-1.17,-1.1723,-1.1729,-1.1738,-1.1758,-1.1768,-1.178,-1.1796,-1.1801,-1.182,-1.1838,-1.1854,-1.1877,-1.1885,-1.1901,-1.1905,-1.1896,-1.1897,-1.1902,-1.1902,-1.1914,-1.1917,-1.1913,-1.1913,-1.1913,0,-1.1667,-1.1676,-1.17,-1.171,-1.1721,-1.1735,-1.1746,-1.1763,-1.1774,-1.1796,-1.1803,-1.1821,-1.1837,-1.1864,-1.1881,-1.1899,-1.1903,-1.1906,-1.1906,-1.1903,-1.1905,-1.1904,-1.1906,-1.1906,-1.1906,-1.1906,-1.1906,0,-1.1666,-1.1674,-1.1689,-1.1708,-1.172,-1.1736,-1.1751,-1.1758,-1.1778,-1.179,-1.1808,-1.1821,-1.1845,-1.1863,-1.1884,-1.1895,-1.1905,-1.1906,-1.1909,-1.1905,-1.1899,-1.1903,-1.1896,-1.1906,-1.1906,-1.1906,-1.1906,-1.1906,-1.1663,-1.1673,-1.1692,-1.1709,-1.1723,-1.1738,-1.1749,-1.1763,-1.1779,-1.18,-1.1809,-1.1828,-1.1847,-1.1875,-1.1887,-1.1903,-1.1905,-1.1908,-1.1909,-1.1909,-1.1909,-1.1897,-1.1907,-1.1907,-1.1907,-1.1907,-1.1907,0,-1.1664,-1.1677,-1.1693,-1.1715,-1.1729,-1.1737,-1.1755,-1.1766,-1.1783,-1.18,-1.1815,-1.1837,-1.1856,-1.1875,-1.1895,-1.1904,-1.1908,-1.1908,-1.1908,-1.1911,-1.1906,-1.1902,-1.1904,-1.1904,-1.1904,-1.1904,-1.1904,-1.1904,-1.1666,-1.1683,-1.1693,-1.1718,-1.1731,-1.175,-1.176,-1.1774,-1.1788,-1.1812,-1.1828,-1.184,-1.1859,-1.188,-1.1898,-1.1904,-1.1911,-1.191,-1.1916,-1.1911,-1.1911,-1.1911,-1.1908,-1.1911,-1.1911,-1.192,-1.192,-1.192]}]]